This is the latest recevied weather packets stored in our database for station/object WB4FAY-4. If no packets are shown the sender has not sent any weather packets the latest 1 day(s).
| Time | Temp. | Humidity | Pressure | Rain* | Wind** | Luminosity | Snow |
|---|---|---|---|---|---|---|---|
| 1836274691 | 20.56° C | 96% | - | 0.25 mm | 0 m/s | - | - |
| 1836274541 | 20.56° C | 96% | - | 0.25 mm | 0 m/s | - | - |
| 1836274392 | 20.56° C | 96% | - | 0.25 mm | 0 m/s | - | - |
| 1836274241 | 20.56° C | 96% | - | 0.25 mm | 0 m/s | - | - |
| 1836274091 | 20.56° C | 96% | - | 0.25 mm | 0 m/s | - | - |
| 1778058918 | 20.56° C | 83% | 1012.8 hPa | 0 mm | 0.45 m/s, 230° | - | - |
| 1778058617 | 20.56° C | 83% | 1012.8 hPa | 0 mm | 0 m/s | - | - |
| 1778058318 | 20.56° C | 83% | 1012.8 hPa | 0 mm | 1.34 m/s, 224° | - | - |
| 1778058017 | 20.56° C | 82% | 1012.8 hPa | 0 mm | 0.45 m/s, 236° | - | - |
| 1778057717 | 20.56° C | 82% | 1012.5 hPa | 0 mm | 2.24 m/s, 253° | - | - |
| 1778057417 | 20.56° C | 82% | 1012.5 hPa | 0 mm | 1.34 m/s, 203° | - | - |
| 1778057117 | 20.56° C | 82% | 1012.5 hPa | 0 mm | 0.89 m/s, 205° | - | - |
| 1778056818 | 20.56° C | 81% | 1012.5 hPa | 0 mm | 1.34 m/s, 254° | - | - |
| 1778056517 | 20.56° C | 81% | 1012.5 hPa | 0 mm | 0.89 m/s, 219° | - | - |
| 1778056217 | 20.56° C | 81% | 1012.5 hPa | 0 mm | 1.34 m/s, 246° | - | - |
| 1778055917 | 20.56° C | 81% | 1012.5 hPa | 0 mm | 0.89 m/s, 217° | - | - |
| 1778055618 | 20.56° C | 81% | 1012.5 hPa | 0 mm | 1.79 m/s, 199° | - | - |
| 1778055317 | 20.56° C | 80% | 1012.6 hPa | 0 mm | 1.34 m/s, 191° | - | - |
| 1778055017 | 20.56° C | 80% | 1012.6 hPa | 0 mm | 0.89 m/s, 241° | - | - |
| 1778054717 | 20.56° C | 80% | 1012.6 hPa | 0 mm | 1.34 m/s, 229° | - | - |
| 1778054417 | 20.56° C | 79% | 1012.6 hPa | 0 mm | 0.45 m/s, 265° | - | - |
| 1778054117 | 20.56° C | 79% | 1012.7 hPa | 0 mm | 2.24 m/s, 202° | - | - |
| 1778053817 | 20.56° C | 79% | 1012.7 hPa | 0 mm | 2.24 m/s, 191° | - | - |
| 1778053523 | 21.11° C | 78% | 1012.6 hPa | 0 mm | 1.34 m/s, 195° | - | - |
| 1778053217 | 21.11° C | 78% | 1012.6 hPa | 0 mm | 2.68 m/s, 199° | - | - |
* Rain latest 24 hours (hover to see other rain measurements)
** Current wind speed in m/s (hover to see current wind gust speed)